DW0830 Weather Reports


time (UTC)temp
F
wind
direction
speed
knots
gust
knots
rain 1hr
in
rain 24hr
in
rain mn
in
humidity
%
barometer
mb
20260506034230 56 135 6.1 7.0 0.00 0.00 0.00 76 1008.0
20260506033219 55 135 1.7 1.7 0.00 0.00 0.00 76 1007.9
20260506032208 55 0 1.7 2.6 0.00 0.00 0.00 75 1007.9
20260506031204 55 90 1.7 1.7 0.00 0.00 0.00 75 1008.0
20260506030152 55 90 1.7 1.7 0.00 0.00 0.00 75 1007.9
20260506025243 55 135 3.5 4.3 0.00 0.00 0.00 72 1007.7
20260506024231 57 135 5.2 6.1 0.00 0.00 0.00 70 1007.7
20260506023220 58 135 3.5 3.5 0.00 0.00 0.00 72 1008.2
20260506022209 56 45 0.9 1.7 0.00 0.00 0.00 70 1007.9
20260506021203 57 45 0.9 1.7 0.00 0.00 0.00 70 1008.2
20260506020157 58 0.0 1.7 0.00 0.00 0.00 68 1007.9
20260506015655 59 90 1.7 1.7 0.00 0.00 0.00 68 1008.0
20260506014644 59 135 1.7 1.7 0.00 0.00 0.00 68 1008.0
20260506013630 60 225 3.5 4.3 0.00 0.00 0.00 67 1008.0
20260506012618 60 180 3.5 5.2 0.00 0.00 0.00 66 1008.0
20260506011608 60 180 6.1 7.0 0.00 0.00 0.00 66 1007.8
20260506010604 59 180 8.7 10.4 0.00 0.00 0.00 67 1007.9
20260506005657 59 135 5.2 6.1 0.00 0.00 0.00 66 1008.1
20260506004647 60 180 3.5 4.3 0.00 0.00 0.00 65 1008.2
20260506003631 60 135 4.3 5.2 0.00 0.00 0.00 63 1008.2
20260506002641 62 135 5.2 7.0 0.00 0.00 0.00 62 1008.1
20260506001608 62 180 6.1 7.0 0.00 0.00 0.00 62 1008.1
20260506000604 62 180 7.0 7.8 0.00 0.00 0.00 61 1008.4
20260505235242 62 180 7.0 8.7 0.00 0.00 0.00 61 1008.1
20260505234310 62 180 9.6 10.4 0.00 0.00 0.00 60 1008.1
20260505233218 63 180 7.0 8.7 0.00 0.00 0.00 60 1008.2
20260505232207 63 225 6.1 7.8 0.00 0.00 0.00 60 1008.4
20260505231203 63 180 7.0 7.8 0.00 0.00 0.00 60 1008.2
20260505230151 63 180 7.0 8.7 0.00 0.00 0.00 60 1008.5
20260505225417 63 203 6.1 7.0 0.00 0.00 0.00 60 1008.4
20260505224407 64 180 6.1 7.0 0.00 0.00 0.00 54 1008.3
20260505223356 64 180 7.0 7.0 0.00 0.00 0.00 53 1008.5
20260505222346 64 225 7.8 13.0 0.00 0.00 0.00 53 1008.3
20260505221339 64 225 9.6 10.4 0.00 0.00 0.00 52 1008.3
20260505220327 64 225 7.8 9.6 0.00 0.00 0.00 52 1008.2
20260505215420 65 180 7.8 9.6 0.00 0.00 0.00 51 1008.3
20260505214408 65 180 7.0 7.0 0.00 0.00 0.00 52 1008.2
20260505213423 65 203 7.0 7.0 0.00 0.00 0.00 52 1008.3
20260505212346 64 180 7.8 9.6 0.00 0.00 0.00 53 1008.3
20260505211340 65 180 4.3 5.2 0.00 0.00 0.00 52 1008.2
20260505210327 65 180 7.0 8.7 0.00 0.00 0.00 51 1008.3
20260505205417 65 180 4.3 6.1 0.00 0.00 0.00 51 1008.4
20260505204407 65 225 6.1 10.4 0.00 0.00 0.00 51 1008.4
20260505203357 65 225 4.3 6.1 0.00 0.00 0.00 51 1008.5
20260505202406 66 225 5.2 6.1 0.00 0.00 0.00 50 1008.2
20260505201419 67 225 6.1 7.0 0.00 0.00 0.00 47 1008.3
20260505200328 67 225 7.8 9.6 0.00 0.00 0.00 45 1008.2
20260505195421 67 225 7.8 9.6 0.00 0.00 0.00 45 1008.2
20260505194408 68 225 7.0 8.7 0.00 0.00 0.00 44 1008.2
20260505193404 69 270 7.8 11.3 0.00 0.00 0.00 43 1008.1
20260505192354 69 225 9.6 11.3 0.00 0.00 0.00 43 1008.2
20260505191339 70 225 7.0 7.8 0.00 0.00 0.00 42 1007.7
20260505190328 70 225 5.2 7.0 0.00 0.00 0.00 41 1007.8
20260505185421 71 225 9.6 13.0 0.00 0.00 0.00 41 1007.6
20260505184408 71 225 6.1 7.0 0.00 0.00 0.00 40 1007.6
20260505183506 71 225 7.0 7.0 0.00 0.00 0.00 40 1007.5
20260505182355 71 225 6.1 7.0 0.00 0.00 0.00 40 1007.3
20260505181341 72 225 7.8 8.7 0.00 0.00 0.00 38 1007.3
20260505180327 72 225 7.0 7.8 0.00 0.00 0.00 37 1007.2
20260505175419 73 180 8.7 10.4 0.00 0.00 0.00 32 1007.4
20260505174408 74 315 6.1 7.0 0.00 0.00 0.00 32 1007.3
20260505173403 74 270 8.7 9.6 0.00 0.00 0.00 32 1007.3
20260505172352 75 225 11.3 13.0 0.00 0.00 0.00 31 1007.1
20260505171339 76 225 7.8 9.6 0.00 0.00 0.00 30 1006.7
20260505170327 77 270 11.3 13.9 0.00 0.00 0.00 28 1006.7
20260505165418 78 225 9.6 10.4 0.00 0.00 0.00 26 1006.9
20260505164407 79 203 8.7 10.4 0.00 0.00 0.00 25 1006.9
20260505163359 80 225 11.3 13.0 0.00 0.00 0.00 23 1007.0
20260505162348 80 225 10.4 12.2 0.00 0.00 0.00 22 1006.8
20260505161339 80 180 7.0 7.8 0.00 0.00 0.00 23 1006.9
20260505160328 80 135 7.8 9.6 0.00 0.00 0.00 23 1007.0
20260505152352 78 203 7.0 8.7 0.00 0.00 0.00 24 1007.5
20260505151342 78 225 13.0 14.8 0.00 0.00 0.00 23 1007.5
20260505150327 79 225 13.0 14.8 0.00 0.00 0.00 22 1007.5
20260505140328 79 180 9.6 13.0 0.00 0.00 0.00 25 1008.2
20260505123358 82 158 10.4 12.2 0.00 0.00 0.00 22 1008.7
20260505122346 81 135 12.2 13.0 0.00 0.00 0.00 25 1008.8
20260505121338 81 180 12.2 13.0 0.00 0.00 0.00 23 1008.9
20260505120327 82 135 12.2 13.9 0.00 0.00 0.00 21 1009.0
20260505115421 81 180 13.9 19.1 0.00 0.00 0.00 22 1009.0
20260505114408 81 180 13.9 15.6 0.00 0.00 0.00 23 1009.4
20260505113404 80 135 14.8 17.4 0.00 0.00 0.00 24 1009.4
20260505112352 80 180 7.0 7.8 0.00 0.00 0.00 23 1009.3
20260505111339 80 225 10.4 11.3 0.00 0.00 0.00 25 1009.7
20260505110328 79 180 15.6 18.2 0.00 0.00 0.00 24 1009.8
20260505101339 79 180 9.6 11.3 0.00 0.00 0.00 27 1010.3
20260505100328 79 158 9.6 10.4 0.00 0.00 0.00 28 1010.2
20260505095441 78 203 7.0 7.8 0.00 0.00 0.00 27 1010.5
20260505094407 78 180 13.0 14.8 0.00 0.00 0.00 26 1010.6
20260505093357 77 225 10.4 12.2 0.00 0.00 0.00 26 1010.6
20260505092346 77 180 12.2 13.0 0.00 0.00 0.00 29 1010.7
20260505091344 76 225 8.7 9.6 0.00 0.00 0.00 30 1010.8
20260505090347 75 180 12.2 13.9 0.00 0.00 0.00 30 1011.0
20260505085419 75 180 9.6 11.3 0.00 0.00 0.00 31 1011.1
20260505084409 74 180 9.6 12.2 0.00 0.00 0.00 32 1011.0
20260505083406 73 135 7.0 7.8 0.00 0.00 0.00 32 1011.1
20260505082352 73 135 8.7 9.6 0.00 0.00 0.00 33 1011.3
20260505081400 73 158 8.7 9.6 0.00 0.00 0.00 33 1011.3
20260505080327 71 180 9.6 10.4 0.00 0.00 0.00 38 1011.5
20260505075416 71 225 7.8 8.7 0.00 0.00 0.00 40 1011.2
20260505074406 71 180 9.6 9.6 0.00 0.00 0.00 40 1011.4
20260505073357 70 135 8.7 10.4 0.00 0.00 0.00 40 1011.5
20260505072346 69 180 9.6 11.3 0.00 0.00 0.00 40 1011.6
20260505071338 69 180 7.8 8.7 0.00 0.00 0.00 40 1011.7
20260505070327 68 180 7.8 8.7 0.00 0.00 0.00 40 1011.5
20260505065438 67 180 7.8 9.6 0.00 0.00 0.00 40 1011.8
20260505064406 67 180 8.7 9.6 0.00 0.00 0.00 40 1011.9
20260505063356 66 180 7.0 7.0 0.00 0.00 0.00 40 1011.8
20260505062347 65 135 6.1 7.0 0.00 0.00 0.00 40 1012.0
20260505061339 64 158 3.5 4.3 0.00 0.00 0.00 41 1011.9
20260505060327 64 180 4.3 5.2 0.00 0.00 0.00 42 1011.8
20260505055419 63 180 4.3 5.2 0.00 0.00 0.00 47 1011.8
20260505054407 61 135 3.5 3.5 0.00 0.00 0.00 50 1011.9
20260505053403 59 180 1.7 1.7 0.00 0.00 0.00 52 1011.8
20260505052417 57 180 1.7 2.6 0.00 0.00 0.00 53 1012.1
20260505051342 57 0.0 0.0 0.00 0.00 0.00 55 1011.9
20260505050347 56 0.0 0.0 0.00 0.00 0.00 62 1011.7
20260505041339 46 0.0 0.0 0.00 0.00 0.00 74 1011.8
20260505040328 46 0.0 0.0 0.00 0.00 0.00 74 1011.9
20260505035446 46 0.0 0.0 0.00 0.00 0.00 73 1011.6